TimeCDT,TemperatureF,Dew PointF,Humidity,Sea Level PressureIn,VisibilityMPH,Wind Direction,Wind SpeedMPH,Gust SpeedMPH,PrecipitationIn,Events,Conditions,WindDirDegrees,DateUTC
12:13 AM,33.8,21.2,60,29.92,10.0,WNW,20.7,26.5,N/A,,Overcast,300,2013-10-21 05:13:00
12:33 AM,32.0,21.2,64,29.93,10.0,WNW,17.3,-,N/A,,Overcast,290,2013-10-21 05:33:00
12:53 AM,32.0,23.0,69,29.93,10.0,WNW,17.3,23.0,N/A,,Overcast,290,2013-10-21 05:53:00
1:14 AM,32.0,23.0,69,29.93,10.0,WNW,18.4,23.0,N/A,,Overcast,290,2013-10-21 06:14:00
1:33 AM,32.0,24.8,75,29.93,10.0,WNW,15.0,-,N/A,,Overcast,290,2013-10-21 06:33:00
1:53 AM,32.0,21.2,64,29.94,10.0,WNW,15.0,21.9,N/A,,Overcast,300,2013-10-21 06:53:00
2:14 AM,32.0,19.4,60,29.94,10.0,NW,15.0,19.6,N/A,,Overcast,320,2013-10-21 07:14:00
2:33 AM,32.0,19.4,60,29.94,10.0,NW,16.1,21.9,N/A,,Overcast,310,2013-10-21 07:33:00
2:53 AM,32.0,19.4,60,29.94,10.0,WNW,18.4,25.3,N/A,,Overcast,300,2013-10-21 07:53:00
3:13 AM,30.2,21.2,69,29.94,10.0,West,11.5,-,N/A,,Overcast,280,2013-10-21 08:13:00
3:33 AM,30.2,23.0,75,29.94,10.0,West,10.4,-,N/A,,Overcast,280,2013-10-21 08:33:00
3:54 AM,30.2,24.8,80,29.94,10.0,West,10.4,-,N/A,,Overcast,280,2013-10-21 08:54:00
4:13 AM,30.2,24.8,80,29.94,10.0,West,11.5,-,N/A,,Overcast,280,2013-10-21 09:13:00
4:33 AM,30.2,24.8,80,29.94,10.0,West,13.8,-,N/A,,Overcast,280,2013-10-21 09:33:00
4:53 AM,30.2,24.8,80,29.94,10.0,WNW,11.5,20.7,N/A,,Overcast,290,2013-10-21 09:53:00
5:13 AM,30.2,23.0,75,29.94,10.0,WNW,18.4,23.0,N/A,,Overcast,290,2013-10-21 10:13:00
5:33 AM,30.2,21.2,69,29.94,10.0,WNW,17.3,21.9,N/A,,Overcast,300,2013-10-21 10:33:00
5:53 AM,30.2,23.0,75,29.94,10.0,WNW,10.4,-,N/A,,Overcast,290,2013-10-21 10:53:00
6:13 AM,30.2,21.2,69,29.94,10.0,WNW,13.8,-,N/A,,Overcast,290,2013-10-21 11:13:00
6:34 AM,30.2,23.0,75,29.94,10.0,West,10.4,-,N/A,,Overcast,280,2013-10-21 11:34:00
6:53 AM,30.2,21.2,69,29.94,10.0,West,12.7,-,N/A,,Overcast,280,2013-10-21 11:53:00
7:13 AM,30.2,21.2,69,29.94,10.0,West,11.5,-,N/A,,Overcast,280,2013-10-21 12:13:00
7:33 AM,30.2,21.2,69,29.94,10.0,WNW,18.4,-,N/A,,Overcast,300,2013-10-21 12:33:00
7:54 AM,30.2,21.2,69,29.95,10.0,WNW,12.7,16.1,N/A,,Overcast,290,2013-10-21 12:54:00
8:13 AM,30.2,21.2,69,29.95,10.0,West,11.5,18.4,N/A,,Overcast,280,2013-10-21 13:13:00
8:33 AM,30.2,19.4,64,29.95,10.0,West,11.5,17.3,N/A,,Overcast,280,2013-10-21 13:33:00
8:53 AM,30.2,19.4,64,29.95,10.0,West,11.5,19.6,N/A,,Overcast,280,2013-10-21 13:53:00
9:13 AM,30.2,19.4,64,29.96,10.0,West,11.5,19.6,N/A,,Overcast,280,2013-10-21 14:13:00
9:33 AM,30.2,19.4,64,29.96,10.0,WNW,19.6,25.3,N/A,,Overcast,300,2013-10-21 14:33:00
9:53 AM,30.2,19.4,64,29.96,10.0,WNW,16.1,25.3,N/A,,Overcast,290,2013-10-21 14:53:00
10:13 AM,30.2,19.4,64,29.96,10.0,WNW,16.1,-,N/A,,Overcast,300,2013-10-21 15:13:00
10:34 AM,32.0,19.4,60,29.95,10.0,WNW,13.8,23.0,N/A,,Overcast,300,2013-10-21 15:34:00
10:53 AM,32.0,19.4,60,29.95,10.0,WNW,15.0,25.3,N/A,,Overcast,300,2013-10-21 15:53:00
11:13 AM,32.0,19.4,60,29.96,10.0,WNW,19.6,24.2,N/A,,Overcast,290,2013-10-21 16:13:00
11:33 AM,32.0,19.4,60,29.95,10.0,WNW,17.3,25.3,N/A,,Overcast,290,2013-10-21 16:33:00
11:53 AM,33.8,21.2,60,29.96,10.0,WNW,18.4,-,N/A,,Overcast,290,2013-10-21 16:53:00
12:13 PM,33.8,21.2,60,29.96,10.0,West,18.4,-,N/A,,Overcast,280,2013-10-21 17:13:00
12:33 PM,33.8,21.2,60,29.95,10.0,WNW,19.6,24.2,N/A,,Overcast,290,2013-10-21 17:33:00
12:53 PM,35.6,21.2,56,29.95,10.0,West,18.4,26.5,N/A,,Mostly Cloudy,280,2013-10-21 17:53:00
1:14 PM,35.6,21.2,56,29.94,10.0,West,18.4,25.3,N/A,,Scattered Clouds,280,2013-10-21 18:14:00
1:33 PM,35.6,21.2,56,29.94,10.0,West,17.3,25.3,N/A,,Scattered Clouds,280,2013-10-21 18:33:00
1:53 PM,35.6,21.2,56,29.93,10.0,WNW,15.0,24.2,N/A,,Scattered Clouds,290,2013-10-21 18:53:00
2:13 PM,35.6,21.2,56,29.93,10.0,WNW,18.4,-,N/A,,Scattered Clouds,300,2013-10-21 19:13:00
2:33 PM,37.4,23.0,56,29.93,10.0,West,15.0,18.4,N/A,,Scattered Clouds,270,2013-10-21 19:33:00
2:54 PM,35.6,21.2,56,29.93,10.0,WNW,19.6,23.0,N/A,,Mostly Cloudy,290,2013-10-21 19:54:00
3:13 PM,35.6,21.2,56,29.93,10.0,WNW,17.3,-,N/A,,Scattered Clouds,300,2013-10-21 20:13:00
3:33 PM,37.4,23.0,56,29.93,10.0,WNW,17.3,24.2,N/A,,Scattered Clouds,290,2013-10-21 20:33:00
3:38 PM,37.4,21.2,52,29.93,10.0,WNW,13.8,24.2,N/A,,Scattered Clouds,300,2013-10-21 20:38:00
4:13 PM,35.6,23.0,60,29.94,10.0,WNW,12.7,-,N/A,,Scattered Clouds,300,2013-10-21 21:13:00
4:33 PM,35.6,21.2,56,29.94,10.0,WNW,13.8,-,N/A,,Scattered Clouds,300,2013-10-21 21:33:00
4:53 PM,33.8,23.0,65,29.94,10.0,WNW,12.7,-,N/A,,Clear,300,2013-10-21 21:53:00
5:13 PM,35.6,23.0,60,29.94,10.0,NW,11.5,-,N/A,,Clear,310,2013-10-21 22:13:00
5:34 PM,35.6,21.2,56,29.94,10.0,NW,12.7,16.1,N/A,,Clear,310,2013-10-21 22:34:00
5:53 PM,35.6,23.0,60,29.94,10.0,WNW,11.5,-,N/A,,Clear,290,2013-10-21 22:53:00
6:13 PM,33.8,23.0,65,29.95,10.0,WNW,10.4,-,N/A,,Clear,290,2013-10-21 23:13:00
6:33 PM,32.0,24.8,75,29.95,10.0,West,6.9,-,N/A,,Scattered Clouds,280,2013-10-21 23:33:00
6:53 PM,32.0,24.8,75,29.95,10.0,WNW,8.1,-,N/A,,Mostly Cloudy,300,2013-10-21 23:53:00
7:14 PM,30.2,24.8,80,29.95,10.0,WNW,6.9,-,N/A,,Scattered Clouds,290,2013-10-22 00:14:00
7:33 PM,30.2,24.8,80,29.95,10.0,West,6.9,-,N/A,,Scattered Clouds,280,2013-10-22 00:33:00
7:53 PM,30.2,24.8,80,29.95,10.0,West,5.8,-,N/A,,Scattered Clouds,280,2013-10-22 00:53:00
8:13 PM,30.2,24.8,80,29.95,10.0,WNW,5.8,-,N/A,,Mostly Cloudy,290,2013-10-22 01:13:00
8:33 PM,30.2,24.8,80,29.95,10.0,WNW,5.8,-,N/A,,Mostly Cloudy,300,2013-10-22 01:33:00
8:53 PM,30.2,24.8,80,29.95,10.0,NW,4.6,-,N/A,,Scattered Clouds,320,2013-10-22 01:53:00
9:13 PM,28.4,24.8,86,29.95,10.0,WNW,4.6,-,N/A,,Scattered Clouds,300,2013-10-22 02:13:00
9:33 PM,28.4,23.0,80,29.95,10.0,WNW,4.6,-,N/A,,Clear,290,2013-10-22 02:33:00
9:53 PM,28.4,24.8,86,29.95,10.0,NW,3.5,-,N/A,,Clear,310,2013-10-22 02:53:00
10:13 PM,26.6,24.8,93,29.95,10.0,WNW,4.6,-,N/A,,Clear,300,2013-10-22 03:13:00
10:34 PM,28.4,23.0,80,29.95,10.0,WNW,4.6,-,N/A,,Clear,300,2013-10-22 03:34:00
10:53 PM,28.4,24.8,86,29.95,10.0,West,3.5,-,N/A,,Clear,280,2013-10-22 03:53:00
11:13 PM,28.4,24.8,86,29.95,10.0,West,4.6,-,N/A,,Clear,280,2013-10-22 04:13:00
11:33 PM,26.6,24.8,93,29.95,10.0,West,5.8,-,N/A,,Clear,270,2013-10-22 04:33:00
11:53 PM,28.4,24.8,86,29.95,10.0,West,4.6,-,N/A,,Clear,280,2013-10-22 04:53:00